Latest Coastal Weather Observations for Browse Island

IDW60701

Issued at 8:13 am WST Thursday 19 January 2017 (issued every 10 minutes, with the page automatically refreshed every 10 minutes)

About coastal observations | Map of coastal stations | Coastal observations for WA | Marine services | Other Formats
Station Details ID: 200784 Name: BROWSE ISLAND Lat: -14.11 Lon: 123.55 Height: 3.7 m
Data from the previous 72 hours. | See also: Recent months at Browse Island
Date/Time
WST
Temp
°C
Wind Pressure Rain since
9am
mm
Weather Cloud Vis
km
Sea
Height
m
Swell
Dir  Spd
kts
Gust
kts
hPa Trend Height
m
Period
s
Dir
19/08:00am 29.0 WNW 11 12 1010.2 - - - - - - - - -
19/07:30am 29.0 NW 8 - 1010.0 - - - - - - - - -
19/07:00am 28.4 NW 6 7 1009.4 - - - - - - - - -
19/06:30am 28.0 WNW 5 - 1009.0 - - - - - - - - -
19/06:00am 27.2 NW 14 16 1009.1 - - - - - - - - -
19/05:30am 29.0 NW 13 - 1008.0 - - - - - - - - -
19/05:00am 28.8 WNW 11 - 1008.3 - - - - - - - - -
19/04:30am 29.0 WNW 11 - 1008.0 - - - - - - - - -
19/04:00am 28.7 WNW 11 13 1007.7 - - - - - - - - -
19/03:30am 29.0 W 12 - 1007.0 - - - - - - - - -
19/03:00am 28.6 WNW 12 13 1007.9 - - - - - - - - -
19/02:30am 29.0 W 11 - 1008.0 - - - - - - - - -
19/02:00am 28.8 WNW 12 - 1007.9 - - - - - - - - -
19/01:30am 29.0 W 12 - 1008.0 - - - - - - - - -
19/01:00am 28.9 W 14 16 1008.5 - - - - - - - - -
19/12:30am 29.0 WNW 14 - 1008.0 - - - - - - - - -
19/12:00am 28.9 WNW 14 15 1008.6 - - - - - - - - -
 
Date/Time
WST
Temp
°C
Wind Pressure Rain since
9am
mm
Weather Cloud Vis
km
Sea
Height
m
Swell
Dir  Spd
kts
Gust
kts
hPa Trend Height
m
Period
s
Dir
18/11:30pm 29.0 W 14 - 1009.0 - - - - - - - - -
18/11:00pm 29.0 WNW 14 - 1009.0 - - - - - - - - -
18/10:30pm 29.0 WNW 12 - 1009.0 - - - - - - - - -
18/10:00pm 29.0 WNW 14 15 1009.1 - - - - - - - - -
18/09:30pm 29.0 WNW 13 - 1008.0 - - - - - - - - -
18/09:00pm 29.0 WNW 13 15 1008.5 - - - - - - - - -
18/08:30pm 28.0 WNW 10 - 1008.0 - - - - - - - - -
18/08:00pm 28.3 WNW 11 - 1007.9 - - - - - - - - -
18/07:30pm 28.0 WNW 9 - 1007.0 - - - - - - - - -
18/07:00pm 28.0 W 7 8 1007.8 - - - - - - - - -
18/06:30pm 27.8 WSW 9 10 1007.7 - - - - - - - - -
18/06:00pm 27.4 SW 12 14 1007.3 - - - - - - - - -
18/05:30pm 27.0 SW 18 - 1007.0 - - - - - - - - -
18/05:00pm 28.6 WSW 15 - 1007.0 - - - - - - - - -
18/04:30pm 29.0 W 17 - 1007.0 - - - - - - - - -
18/04:00pm 28.5 W 16 19 1006.8 - - - - - - - - -
18/03:30pm 29.0 W 19 - 1006.0 - - - - - - - - -
18/03:00pm 28.6 W 18 21 1007.0 - - - - - - - - -
18/02:30pm 29.0 W 15 - 1007.0 - - - - - - - - -
18/02:00pm 28.8 W 13 - 1007.5 - - - - - - - - -
18/01:30pm 28.0 W 11 - 1007.0 - - - - - - - - -
18/01:00pm 27.7 W 10 - 1008.0 - - - - - - - - -
18/12:30pm 28.0 W 10 - 1008.0 - - - - - - - - -
18/12:00pm 27.3 W 11 14 1009.0 - - - - - - - - -
18/11:30am 27.0 W 12 - 1009.0 - - - - - - - - -
18/11:00am 26.1 WSW 19 - 1009.4 - - - - - - - - -
18/10:30am 26.0 NNW 16 - 1009.0 - - - - - - - - -
18/10:00am 25.9 NW 19 23 1009.8 - - - - - - - - -
18/09:41am 25.0 N 25 - 1010.0 - - - - - - - - -
18/09:30am 26.0 NW 24 - 1010.0 - - - - - - - - -
18/09:21am 27.0 NW 16 26 1009.0 - - - - - - - - -
18/09:00am 28.8 NW 14 17 1009.9 - - - - - - - - -
18/08:30am 29.0 WNW 16 - 1009.0 - - - - - - - - -
18/08:00am 28.7 WNW 15 - 1009.6 - - - - - - - - -
18/07:30am 29.0 WNW 15 - 1009.0 - - - - - - - - -
18/07:00am 28.5 NW 14 - 1009.1 - - - - - - - - -
18/06:30am 28.3 NW 13 16 1009.1 - - - - - - - - -
18/06:00am 28.6 NW 14 17 1008.4 - - - - - - - - -
18/05:30am 28.0 NW 15 - 1007.0 - - - - - - - - -
18/05:00am 28.4 WNW 18 - 1007.5 - - - - - - - - -
18/04:30am 29.0 WNW 16 - 1007.0 - - - - - - - - -
18/04:00am 28.9 WNW 17 - 1006.9 - - - - - - - - -
18/03:30am 29.0 WNW 16 - 1006.0 - - - - - - - - -
18/03:00am 29.0 WNW 15 17 1006.9 - - - - - - - - -
18/02:30am 29.0 WNW 15 - 1007.0 - - - - - - - - -
18/02:00am 28.9 W 16 18 1007.2 - - - - - - - - -
18/01:30am 29.0 W 15 - 1007.0 - - - - - - - - -
18/01:00am 29.0 WNW 15 17 1007.5 - - - - - - - - -
18/12:30am 29.0 WNW 15 - 1007.0 - - - - - - - - -
18/12:00am 29.1 WNW 15 17 1007.8 - - - - - - - - -
 
Date/Time
WST
Temp
°C
Wind Pressure Rain since
9am
mm
Weather Cloud Vis
km
Sea
Height
m
Swell
Dir  Spd
kts
Gust
kts
hPa Trend Height
m
Period
s
Dir
17/11:30pm 29.0 WNW 15 - 1008.0 - - - - - - - - -
17/11:00pm 29.1 WNW 14 - 1008.4 - - - - - - - - -
17/10:30pm 27.0 W 14 - 1009.0 - - - - - - - - -
17/10:00pm 28.4 WNW 13 21 1008.7 - - - - - - - - -
17/09:30pm 29.0 WNW 13 15 1008.8 - - - - - - - - -
17/09:00pm 28.7 NW 9 11 1008.7 - - - - - - - - -
17/08:30pm 28.0 WNW 18 - 1008.0 - - - - - - - - -
17/08:00pm 29.2 W 12 - 1008.2 - - - - - - - - -
17/07:30pm 29.0 W 12 - 1007.0 - - - - - - - - -
17/07:00pm 29.1 WNW 12 - 1007.5 - - - - - - - - -
17/06:30pm 29.0 WNW 12 - 1007.0 - - - - - - - - -
17/06:00pm 29.1 WNW 9 11 1006.9 - - - - - - - - -
17/05:30pm 29.0 W 13 - 1006.0 - - - - - - - - -
17/05:00pm 29.1 WNW 13 - 1005.9 - - - - - - - - -
17/04:30pm 29.0 WNW 13 - 1005.0 - - - - - - - - -
17/04:00pm 29.2 WNW 11 13 1005.3 - - - - - - - - -
17/03:30pm 29.0 W 11 - 1005.0 - - - - - - - - -
17/03:00pm 28.6 WNW 12 14 1005.6 - - - - - - - - -
17/02:30pm 29.0 W 13 - 1006.0 - - - - - - - - -
17/02:00pm 29.7 W 10 11 1006.1 - - - - - - - - -
17/01:30pm 29.0 W 10 - 1006.0 - - - - - - - - -
17/01:00pm 29.2 W 11 - 1006.6 - - - - - - - - -
17/12:30pm 29.0 WNW 11 - 1007.0 - - - - - - - - -
17/12:00pm 29.4 WNW 11 12 1007.1 - - - - - - - - -
17/11:30am 29.0 WNW 11 - 1007.0 - - - - - - - - -
17/11:00am 29.3 WNW 11 - 1007.7 - - - - - - - - -
17/10:30am 29.0 WNW 11 - 1007.0 - - - - - - - - -
17/10:00am 29.5 WNW 10 11 1008.0 - - - - - - - - -
17/09:30am 29.0 W 9 - 1008.0 - - - - - - - - -
17/09:00am 29.1 W 10 12 1008.1 - - - - - - - - -
17/08:30am 29.0 WSW 8 9 1007.8 - - - - - - - - -
17/08:00am 29.1 WSW 8 - 1007.8 - - - - - - - - -
17/07:30am 29.0 WSW 9 - 1007.0 - - - - - - - - -
17/07:00am 28.8 WSW 9 - 1007.7 - - - - - - - - -
17/06:30am 29.0 WSW 12 - 1007.0 - - - - - - - - -
17/06:00am 28.8 W 11 13 1007.2 - - - - - - - - -
17/05:30am 29.0 W 12 - 1007.0 - - - - - - - - -
17/05:00am 28.8 W 12 - 1006.5 - - - - - - - - -
17/04:30am 29.0 W 13 - 1006.0 - - - - - - - - -
17/04:00am 28.9 W 14 - 1006.2 - - - - - - - - -
17/03:30am 29.0 W 13 - 1006.0 - - - - - - - - -
17/03:00am 28.6 WNW 14 16 1005.9 - - - - - - - - -
17/02:30am 29.0 W 13 - 1006.0 - - - - - - - - -
17/02:00am 28.4 W 13 15 1005.8 - - - - - - - - -
17/01:30am 29.0 WNW 13 - 1006.0 - - - - - - - - -
17/01:00am 28.1 WNW 16 - 1006.2 - - - - - - - - -
17/12:30am 28.0 WNW 15 - 1006.0 - - - - - - - - -
17/12:00am 28.1 W 11 12 1006.6 - - - - - - - - -
 
Date/Time
WST
Temp
°C
Wind Pressure Rain since
9am
mm
Weather Cloud Vis
km
Sea
Height
m
Swell
Dir  Spd
kts
Gust
kts
hPa Trend Height
m
Period
s
Dir
16/11:30pm 29.0 W 14 - 1007.0 - - - - - - - - -
16/11:00pm 28.6 NNW 12 - 1007.3 - - - - - - - - -
16/10:30pm 29.0 WNW 11 - 1007.0 - - - - - - - - -
16/10:00pm 29.0 WNW 11 13 1007.9 - - - - - - - - -
16/09:30pm 29.0 WNW 7 - 1007.0 - - - - - - - - -
16/09:00pm 28.2 WNW 9 10 1007.6 - - - - - - - - -
16/08:30pm 28.0 W 12 - 1007.0 - - - - - - - - -
16/08:00pm 28.7 NNW 6 - 1007.5 - - - - - - - - -
16/07:30pm 29.0 NW 8 - 1007.0 - - - - - - - - -
16/07:00pm 29.0 NW 10 - 1006.8 - - - - - - - - -
16/06:30pm 29.0 N 13 - 1006.0 - - - - - - - - -
16/06:00pm 29.3 NW 10 - 1006.4 - - - - - - - - -
16/05:30pm 29.0 NNW 10 - 1006.0 - - - - - - - - -
16/05:00pm 29.4 NNW 11 - 1006.0 - - - - - - - - -
16/04:30pm 30.0 NNW 8 - 1006.0 - - - - - - - - -
16/04:00pm 29.5 NNW 9 10 1005.5 - - - - - - - - -
16/03:30pm 29.0 N 8 - 1005.0 - - - - - - - - -
16/03:00pm 29.7 NNW 6 - 1005.6 - - - - - - - - -
16/02:30pm 30.0 N 8 - 1005.0 - - - - - - - - -
16/02:00pm 29.8 N 8 9 1006.2 - - - - - - - - -
16/01:30pm 31.0 N 9 - 1006.0 - - - - - - - - -
16/01:00pm 30.2 N 8 10 1006.8 - - - - - - - - -
16/12:30pm 31.0 N 7 - 1007.0 - - - - - - - - -
16/12:00pm 30.1 N 8 - 1007.4 - - - - - - - - -
16/11:30am 30.0 N 7 - 1007.0 - - - - - - - - -
16/11:00am 29.8 N 7 - 1007.9 - - - - - - - - -
16/10:30am 30.0 N 7 8 1008.0 - - - - - - - - -
16/10:00am 29.7 N 8 9 1008.3 - - - - - - - - -
16/09:30am 29.0 N 8 - 1008.0 - - - - - - - - -
16/09:00am 29.3 N 8 - 1008.5 - - - - - - - - -
16/08:30am 29.0 NNW 9 - 1008.0 - - - - - - - - -

Other Formats:

Comma delimited format used in spreadsheet applications
http://www.bom.gov.au/fwo/IDW60701/IDW60701.94103.axf

JavaScript Object Notation format (JSON) in row-major order
http://www.bom.gov.au/fwo/IDW60701/IDW60701.94103.json